Date,TemperatureHighF,TemperatureAvgF,TemperatureLowF,DewpointHighF,DewpointAvgF,DewpointLowF,HumidityHigh,HumidityAvg,HumidityLow,PressureMaxIn,PressureMinIn,WindSpeedMaxMPH,WindSpeedAvgMPH,GustSpeedMaxMPH,PrecipitationSumIn
2013-1-1,71.3,67.8,66.1,66.6,64.8,63.2,93,90,84,30.04,29.93,27,14,35,1.06
2013-1-2,69.7,68.0,66.8,66.9,65.6,63.3,95,92,86,30.01,29.89,24,11,33,0.73
2013-1-3,70.8,68.0,66.4,67.2,65.1,62.7,96,91,82,30.02,29.92,26,12,34,1.02
2013-1-4,71.3,69.1,67.6,66.0,64.5,62.7,89,85,82,30.06,29.95,30,15,36,0.13
2013-1-5,72.2,69.4,66.9,66.3,64.9,63.7,90,86,81,30.08,29.98,33,16,38,0.26
2013-1-6,74.5,70.8,68.2,67.0,65.1,63.3,89,83,73,30.06,29.94,28,14,36,0.04
2013-1-7,73.6,70.3,68.9,67.0,65.2,63.2,88,84,73,30.02,29.89,24,13,33,0.03
2013-1-8,73.1,69.5,67.0,66.9,65.0,63.1,92,86,78,29.94,29.82,27,12,33,0.25
2013-1-9,75.1,70.3,67.8,68.0,65.8,64.6,91,86,76,29.94,29.83,26,11,32,0.05
2013-1-10,76.0,70.7,68.5,67.4,64.6,62.0,87,81,72,29.93,29.85,22,9,24,0.00
2013-1-11,74.7,70.2,67.6,66.2,64.5,62.9,90,82,73,29.91,29.79,21,8,29,0.02
2013-1-12,78.6,71.4,68.1,69.5,66.8,64.5,93,86,72,29.90,29.81,16,5,20,0.12
2013-1-13,80.8,73.0,68.4,69.2,66.8,63.3,93,82,63,29.91,29.85,8,2,12,0.00
2013-1-14,76.0,70.0,67.0,70.5,67.2,63.4,97,91,73,29.90,29.79,33,7,36,0.42
2013-1-15,76.0,69.5,66.0,67.1,62.7,57.2,88,80,69,29.88,29.79,13,4,17,0.00
2013-1-16,75.8,68.8,64.1,63.6,59.5,54.2,81,73,56,29.89,29.77,14,2,19,0.00
2013-1-17,74.2,68.4,65.6,64.2,61.0,58.4,84,77,70,29.85,29.75,14,4,16,0.00
2013-1-18,77.0,69.0,64.8,64.2,59.5,54.5,81,72,56,29.89,29.76,28,7,40,0.00
2013-1-19,66.1,65.0,64.3,55.9,54.5,53.4,72,69,66,29.89,29.85,12,4,21,0.00
2013-1-22,68.4,68.1,67.5,62.9,61.6,60.2,84,80,76,30.02,29.99,20,9,24,0.00
2013-1-23,76.0,69.0,64.7,66.7,63.5,59.0,94,83,71,30.01,29.93,20,8,25,0.16
2013-1-25,76.4,71.8,68.2,68.8,65.7,61.5,87,81,73,30.01,29.91,10,2,13,0.00
2013-1-26,74.5,69.9,67.0,66.7,64.7,61.7,90,84,73,29.96,29.86,13,4,20,0.00
2013-1-27,73.5,70.0,63.7,68.4,66.1,60.4,92,88,82,29.91,29.80,23,11,29,0.88
2013-1-28,73.6,67.8,64.5,67.2,64.0,61.0,93,88,76,29.91,29.82,21,5,24,0.76
2013-1-29,77.8,70.3,65.9,68.2,64.5,62.1,92,82,68,29.95,29.84,12,2,16,0.01
2013-1-30,78.0,70.5,66.1,67.5,64.1,62.0,88,81,62,30.00,29.92,15,4,21,0.00
2013-1-31,74.7,70.0,67.7,66.4,64.5,62.6,90,83,75,30.03,29.94,31,10,31,0.07
2013-2-1,72.4,69.1,66.1,63.3,61.5,58.2,85,77,68,30.05,29.97,28,11,37,0.00
2013-2-2,75.8,69.7,66.7,63.5,61.8,59.9,84,76,64,30.08,29.99,18,9,26,0.00
2013-2-3,71.8,67.7,65.0,61.4,59.4,57.1,81,75,68,30.11,30.01,29,11,37,0.00
2013-2-4,71.3,68.5,66.8,63.9,60.8,56.7,84,77,70,30.06,29.96,29,12,37,0.01
2013-2-5,73.0,68.9,66.0,63.3,61.3,57.3,86,77,68,30.03,29.94,24,10,31,0.04
2013-2-6,73.3,68.7,65.4,66.1,63.8,61.1,91,85,77,30.03,29.94,19,9,24,0.27
2013-2-7,76.7,70.5,67.6,68.1,65.7,63.9,91,85,74,30.05,29.96,21,8,23,0.10
2013-2-8,77.1,70.7,67.8,66.1,64.5,63.4,88,81,67,30.06,29.97,20,7,22,0.02
2013-2-9,74.8,70.0,67.6,66.1,63.7,61.8,89,81,71,30.08,29.97,22,7,28,0.01
2013-2-10,72.3,69.4,67.2,66.7,64.1,62.0,90,84,79,30.12,30.00,28,11,31,0.04
2013-2-11,70.7,67.6,64.8,66.0,63.5,60.9,92,87,81,30.14,30.04,23,10,28,0.52
2013-2-12,71.1,66.8,63.4,62.1,59.9,56.0,89,79,71,30.13,30.02,28,8,31,0.03
2013-2-13,71.8,67.5,65.6,60.3,58.2,55.1,79,72,64,30.07,29.95,18,7,25,0.00
2013-2-14,74.1,67.8,65.5,63.1,59.9,56.5,86,76,66,30.04,29.93,19,8,26,0.01
2013-2-15,75.2,69.5,65.6,65.9,62.6,59.2,85,79,68,30.04,29.94,20,10,27,0.01
2013-2-16,71.7,69.2,67.1,64.3,61.7,58.9,87,77,67,30.06,29.98,27,13,37,0.01
2013-2-17,72.0,68.8,66.4,63.1,61.2,58.6,86,77,68,30.10,29.97,29,15,39,0.01
2013-2-18,72.3,68.5,64.1,63.4,60.5,57.6,90,76,67,30.08,29.98,33,16,40,0.13
2013-2-19,71.6,67.6,64.0,63.7,60.8,55.3,91,79,67,30.09,29.98,26,13,33,0.26
2013-2-20,71.7,68.7,66.7,64.7,62.7,60.8,87,82,75,30.09,30.00,27,13,33,0.06
2013-2-21,70.9,67.9,65.2,66.0,63.8,61.3,93,87,81,30.07,30.00,32,12,33,0.40
2013-2-22,71.5,68.4,66.8,65.7,64.4,62.4,92,87,80,30.07,29.97,26,13,33,0.50
2013-2-23,72.4,68.9,66.3,65.0,63.5,62.1,91,83,75,30.07,29.97,27,12,33,0.06
2013-2-24,72.2,68.4,66.4,65.1,62.1,60.3,88,81,73,30.05,29.95,30,13,34,0.11
2013-2-25,71.7,68.3,66.3,64.3,62.5,60.2,88,82,75,30.08,29.97,25,12,32,0.04
2013-2-26,73.3,68.8,66.4,64.2,62.5,61.1,88,81,72,30.09,30.01,25,12,31,0.09
2013-2-27,74.4,69.2,66.7,63.3,60.5,56.7,82,74,55,30.12,30.02,22,11,29,0.00
2013-2-28,73.7,69.0,66.4,62.9,60.5,56.0,86,75,56,30.12,30.03,27,11,34,0.03
2013-3-1,72.8,68.5,66.6,62.1,59.5,54.9,80,73,63,30.10,30.00,29,14,33,0.00
2013-3-2,72.7,68.6,65.0,61.4,59.4,56.5,85,73,58,30.12,30.00,33,13,35,0.02
2013-3-3,72.6,68.6,66.4,61.1,58.0,53.7,82,69,56,30.11,30.03,24,11,31,0.00
2013-3-4,72.2,68.1,65.8,61.3,58.2,54.4,81,71,63,30.12,30.03,26,11,34,0.00
2013-3-5,74.0,69.0,66.0,62.5,59.0,54.8,86,71,55,30.09,29.99,25,9,33,0.00
2013-3-6,76.7,69.2,66.2,64.0,62.4,61.1,87,79,65,30.08,29.99,18,8,20,0.00
2013-3-7,78.2,70.8,66.0,65.6,62.9,60.5,88,77,61,30.03,29.90,14,4,17,0.00
2013-3-8,76.6,70.2,65.4,66.8,62.9,53.0,88,79,47,29.95,29.81,18,6,25,0.00
2013-3-9,75.4,70.2,66.9,70.4,66.6,63.1,93,89,80,29.87,29.78,25,14,29,0.07
2013-3-10,69.6,65.3,63.5,66.7,63.5,61.5,97,94,89,29.96,29.80,25,8,31,1.47
2013-3-11,78.8,69.2,63.8,66.8,62.4,58.2,92,79,65,30.00,29.89,12,3,15,0.00
2013-3-12,74.5,68.7,66.5,64.9,61.1,57.7,81,77,70,30.01,29.90,17,6,20,0.00
2013-3-13,73.5,68.0,64.3,62.4,59.9,56.8,84,76,66,30.03,29.92,18,6,22,0.00
2013-3-14,75.7,69.0,65.8,65.7,62.2,60.1,88,80,67,30.02,29.90,11,3,18,0.01
2013-3-15,72.4,68.0,65.2,63.5,59.7,57.6,84,75,65,29.92,29.82,28,11,32,0.00
2013-3-16,73.5,66.9,64.3,60.0,56.4,53.9,82,69,54,29.94,29.83,23,4,24,0.00
2013-3-17,73.2,66.1,62.5,59.3,56.3,50.4,81,71,51,29.97,29.86,19,6,24,0.00
2013-3-18,74.2,66.8,63.6,61.2,57.6,54.5,79,72,62,29.97,29.86,15,4,20,0.00
2013-3-19,76.7,69.8,64.5,65.4,61.6,58.2,85,76,63,29.96,29.87,10,3,14,0.00
2013-3-20,78.1,71.3,66.5,69.3,65.2,60.8,90,82,65,29.99,29.88,12,2,14,0.00
2013-3-21,79.1,72.9,68.8,70.0,66.4,63.2,90,81,65,30.00,29.89,16,5,18,0.00
2013-3-22,75.4,70.6,66.5,69.0,66.6,64.0,95,88,74,29.96,29.85,25,10,30,0.10
2013-3-23,71.3,68.1,66.2,65.2,63.7,61.7,91,86,77,29.96,29.85,27,10,31,0.10
2013-3-24,67.9,67.0,65.7,65.9,64.6,63.5,94,92,87,29.98,29.85,22,7,24,0.78
2013-3-25,77.6,71.0,67.6,69.0,66.1,63.9,92,85,73,29.96,29.86,15,6,19,0.00
2013-3-26,79.3,71.8,68.2,67.0,65.0,63.7,88,80,63,29.98,29.87,15,6,19,0.00
2013-3-27,71.7,68.4,66.1,68.0,64.7,62.5,93,88,82,29.98,29.86,17,6,23,0.35
2013-3-28,73.0,69.0,66.3,66.0,63.9,61.9,89,84,77,29.99,29.89,23,9,30,0.11
2013-3-29,72.5,68.4,66.2,65.6,63.7,61.8,93,85,76,30.00,29.92,19,8,29,0.34
2013-3-30,75.7,69.0,65.7,67.4,63.1,58.0,88,82,71,29.99,29.88,26,5,31,0.01
2013-3-31,74.3,66.1,62.1,58.6,54.2,49.9,78,66,53,29.99,29.88,27,9,33,0.00
2013-4-1,71.1,65.4,61.8,59.4,55.6,50.9,77,71,58,29.96,29.86,19,4,24,0.00
2013-4-2,67.8,64.1,62.9,57.1,54.9,52.4,78,72,65,29.98,29.90,20,8,26,0.00
2013-4-3,68.8,66.9,66.4,61.9,61.4,60.9,84,83,77,30.02,29.95,10,5,14,0.04
2013-4-4,76.6,70.2,66.2,65.6,63.1,60.3,87,79,66,30.02,29.92,15,7,20,0.01
2013-4-5,77.0,71.1,67.6,66.9,65.0,63.3,90,82,68,30.07,29.95,17,7,20,0.00
2013-4-6,81.1,73.3,70.0,71.3,68.1,66.4,91,84,68,30.09,29.99,15,6,19,0.01
2013-4-7,77.4,72.2,69.5,69.6,67.3,65.2,90,85,76,30.10,30.00,15,5,19,0.00
2013-4-8,78.2,71.7,68.9,67.5,65.8,64.6,89,82,68,30.04,29.90,15,7,22,0.01
2013-4-9,79.1,72.3,68.7,67.8,65.7,64.2,89,80,64,30.01,29.90,16,7,21,0.00
2013-4-10,78.3,72.3,69.0,68.6,66.7,64.5,91,83,66,30.00,29.90,18,7,23,0.00
2013-4-11,80.8,73.8,69.4,69.6,67.2,64.5,90,80,66,29.97,29.87,14,4,18,0.00
2013-4-12,78.3,72.8,70.0,70.0,67.6,65.7,91,84,66,29.91,29.83,12,4,15,0.00
2013-4-13,77.3,72.4,69.7,70.4,68.5,65.4,95,88,70,29.89,29.77,18,4,24,0.00
2013-4-14,76.8,70.8,66.9,71.1,68.3,65.4,96,92,82,29.90,29.80,20,8,20,0.62
2013-4-15,75.5,70.9,67.6,70.5,67.4,65.8,95,89,80,29.98,29.85,11,2,14,0.13
2013-4-16,80.6,73.6,69.1,71.4,67.4,64.2,89,81,69,30.05,29.91,15,4,17,0.00
2013-4-17,78.5,72.7,69.9,69.8,67.0,65.1,89,83,73,30.09,29.97,22,8,26,0.00
2013-4-18,75.8,71.8,69.0,68.5,66.0,63.8,89,82,75,30.08,30.00,22,10,26,0.01
2013-4-19,75.8,71.3,69.2,69.8,66.7,64.9,91,86,79,30.05,29.95,22,8,23,0.01
2013-4-20,83.0,73.6,69.1,70.4,66.8,64.5,88,80,65,30.01,29.92,13,3,16,0.00
2013-4-21,77.5,72.1,68.6,69.2,67.5,65.6,94,86,73,29.97,29.89,18,4,23,0.13
2013-4-22,77.2,72.1,69.4,71.3,69.0,67.3,96,90,80,29.98,29.89,18,6,24,0.16
2013-4-23,77.0,72.5,68.7,72.2,69.1,67.1,95,89,79,30.00,29.90,17,7,20,0.03
2013-4-24,80.9,72.7,67.2,70.3,67.6,65.5,96,85,67,30.02,29.92,17,4,20,0.68
2013-4-25,77.6,73.1,70.3,68.4,66.3,64.0,89,80,70,30.00,29.91,23,8,24,0.00
2013-4-26,78.1,72.4,69.7,67.8,65.4,62.4,87,79,61,29.98,29.91,20,8,27,0.00
2013-4-27,79.4,73.5,69.0,68.4,65.2,61.7,85,76,60,29.98,29.89,12,4,18,0.00
2013-4-28,80.1,73.7,69.1,71.3,67.8,64.3,91,82,71,29.97,29.86,10,3,16,0.00
2013-4-29,79.5,73.7,70.4,71.7,69.6,68.1,94,87,76,29.92,29.83,13,6,17,0.06
2013-4-30,79.7,73.8,69.7,71.7,69.1,67.0,94,86,73,29.96,29.86,13,2,14,0.00
2013-5-1,80.0,73.8,70.7,69.0,67.3,65.4,88,81,66,30.01,29.92,13,6,18,0.00
2013-5-2,71.2,71.0,70.8,67.1,66.9,66.7,88,87,87,29.99,29.97,11,6,13,0.00
2013-5-3,81.3,74.2,69.0,68.2,65.7,62.7,90,76,60,30.00,29.91,11,4,17,0.02
2013-5-4,79.8,72.8,69.8,70.6,67.1,63.8,88,82,72,29.94,29.83,12,4,17,0.01
2013-5-5,71.7,69.8,65.9,69.8,67.0,64.4,96,91,84,29.88,29.77,26,8,29,0.66
2013-5-6,77.2,71.8,68.6,68.2,65.2,63.7,90,80,69,29.89,29.79,14,3,17,0.00
2013-5-7,78.0,72.2,67.8,68.2,65.1,62.0,86,79,69,29.92,29.84,11,3,15,0.00
2013-5-8,77.9,72.2,67.5,69.1,65.4,62.4,88,80,71,29.95,29.86,10,2,14,0.00
2013-5-9,82.1,73.7,69.2,71.0,66.9,64.4,88,80,66,30.01,29.89,13,4,17,0.00
2013-5-10,82.5,73.9,70.3,70.2,67.4,65.0,90,81,64,30.04,29.94,20,6,25,0.10
2013-5-11,76.4,71.8,68.3,67.5,66.1,64.9,89,83,71,30.03,29.94,27,12,31,0.01
2013-5-12,74.4,70.2,67.4,68.2,66.4,64.1,93,88,79,30.03,29.95,25,12,33,0.24
2013-5-13,76.2,72.3,70.0,68.9,67.9,67.0,92,87,76,30.02,29.94,22,10,26,0.04
2013-5-14,77.7,73.5,70.8,70.2,68.2,66.8,89,84,76,30.05,29.97,24,10,27,0.00
2013-5-15,77.6,73.4,70.5,69.2,67.8,66.5,89,83,72,30.08,29.99,21,9,26,0.05
2013-5-16,77.9,73.2,70.9,68.5,66.9,65.7,86,81,70,30.05,29.98,20,9,25,0.00
2013-5-17,79.1,73.5,70.3,68.1,66.4,64.3,87,79,62,30.02,29.92,18,8,24,0.03
2013-5-18,81.1,74.1,69.8,68.6,66.6,65.2,89,78,64,29.98,29.88,13,6,21,0.13
2013-5-19,77.8,71.3,68.0,69.7,66.2,63.2,92,84,75,29.94,29.84,21,5,28,0.22
2013-5-20,78.4,71.6,67.9,66.9,63.6,61.3,83,76,65,29.93,29.83,17,4,22,0.00
2013-5-21,79.7,72.4,67.8,67.3,64.9,62.5,88,78,63,29.93,29.85,12,2,14,0.00
2013-5-22,84.5,75.7,70.0,71.7,67.8,64.4,88,77,61,29.98,29.86,11,3,13,0.00
2013-5-23,80.6,75.9,72.2,70.6,68.4,64.4,87,78,69,30.00,29.89,17,5,19,0.00
2013-5-24,79.3,74.1,71.2,69.9,68.0,66.0,90,82,71,30.01,29.94,19,8,25,0.05
2013-5-25,77.2,73.2,71.2,69.8,67.5,65.4,89,83,75,30.02,29.94,21,11,29,0.10
2013-5-26,77.6,73.3,70.8,68.8,66.9,64.7,88,81,72,30.04,29.94,19,10,26,0.05
2013-5-27,78.6,73.3,69.9,69.0,67.1,65.3,90,82,70,30.04,29.96,21,8,24,0.18
2013-5-28,79.8,73.9,70.6,71.2,68.9,66.9,91,85,72,30.02,29.96,15,6,18,0.01
2013-5-29,82.8,74.7,71.3,72.8,69.8,67.8,92,85,71,30.00,29.94,15,4,18,0.03
2013-5-30,80.2,74.2,71.4,71.4,69.2,67.4,90,85,72,29.98,29.87,18,7,22,0.03
2013-5-31,77.8,73.2,71.2,71.9,69.6,68.1,92,89,79,29.99,29.88,17,7,21,0.13
2013-6-1,78.4,74.3,72.1,71.7,69.2,67.1,90,85,72,30.03,29.93,28,10,28,0.01
2013-6-2,76.7,73.4,71.0,72.1,69.1,64.8,94,87,76,30.02,29.96,26,12,35,0.08
2013-6-3,78.0,74.0,71.9,68.5,66.9,63.9,86,79,69,30.04,29.95,23,12,33,0.00
2013-6-4,78.4,73.7,71.5,68.9,67.2,64.3,87,81,70,29.99,29.91,23,11,30,0.00
2013-6-5,78.6,73.1,71.0,69.9,66.4,63.8,86,80,69,29.99,29.91,24,10,28,0.02
2013-6-6,77.6,73.5,71.0,67.5,65.8,62.2,84,77,68,29.99,29.89,23,10,26,0.00
2013-6-7,76.4,72.7,70.0,68.2,66.3,64.3,86,81,73,29.99,29.90,22,9,30,0.01
2013-6-8,78.3,73.6,71.2,69.0,66.7,64.5,84,79,70,29.99,29.91,22,9,24,0.00
2013-6-9,79.7,74.0,71.6,69.4,67.4,66.2,85,80,69,30.02,29.93,18,8,26,0.00
2013-6-10,78.1,73.4,71.1,69.2,67.4,65.3,86,82,72,30.00,29.92,22,9,23,0.00
2013-6-11,80.3,74.2,71.5,69.6,67.9,66.5,90,81,65,29.97,29.90,18,7,27,0.04
2013-6-12,78.3,73.9,71.7,70.0,67.9,65.5,88,82,71,30.03,29.93,23,11,29,0.00
2013-6-13,72.3,71.9,71.4,67.8,67.1,66.3,86,85,84,30.01,29.98,21,11,30,0.00
2013-6-14,77.0,73.0,68.8,68.8,67.4,66.0,93,83,74,30.02,29.93,25,11,28,0.71
2013-6-15,77.0,73.2,70.6,68.6,67.0,66.0,87,81,73,29.97,29.87,26,9,27,0.04
2013-6-16,78.6,73.3,70.3,69.2,67.1,65.9,89,81,71,29.96,29.87,22,10,27,0.01
2013-6-17,78.8,73.9,70.7,69.1,67.6,65.8,90,81,69,30.02,29.91,19,9,26,0.01
2013-6-18,78.7,74.1,70.7,70.2,68.0,65.4,90,82,73,30.00,29.94,22,10,26,0.05
2013-6-19,78.5,74.1,71.6,69.3,67.3,65.8,86,80,71,30.00,29.94,19,9,24,0.00
2013-6-20,71.7,71.0,70.7,66.5,65.5,64.9,84,83,82,29.98,29.92,14,7,21,0.00
2013-6-26,76.7,73.0,70.3,69.0,67.5,65.9,91,83,74,30.00,29.92,22,8,27,0.06
2013-6-27,78.5,73.2,70.4,68.7,66.9,65.3,88,81,70,29.96,29.89,19,8,23,0.03
2013-6-28,78.4,73.5,69.9,68.7,67.1,65.4,89,81,68,29.95,29.88,19,7,21,0.03
2013-6-29,78.4,73.5,69.9,69.6,67.6,65.1,91,82,69,29.96,29.87,17,7,20,0.31
2013-6-30,78.0,74.0,71.0,69.4,67.7,66.3,90,81,69,29.98,29.90,22,9,28,0.00
2013-7-1,78.9,73.7,71.3,70.9,68.0,66.0,88,83,69,29.96,29.89,17,7,24,0.06
2013-7-2,77.9,73.4,70.0,69.5,67.2,65.5,90,81,73,29.93,29.85,22,8,26,0.08
2013-7-3,79.1,73.6,69.9,69.6,67.5,66.0,90,81,68,29.94,29.86,18,8,22,0.14
2013-7-4,80.5,74.5,70.8,69.1,66.9,64.9,85,78,67,29.96,29.88,16,6,19,0.00
2013-7-5,81.5,75.0,69.9,69.1,66.5,63.9,85,76,58,29.97,29.87,17,4,23,0.00
2013-7-6,86.2,75.2,69.7,70.9,67.6,64.4,86,78,60,29.96,29.88,12,2,14,0.00
2013-7-7,81.6,75.4,71.3,70.4,67.8,63.6,87,78,65,29.93,29.83,13,5,18,0.00
2013-7-8,82.0,75.4,72.2,71.2,69.3,67.3,88,82,65,29.97,29.84,16,7,21,0.01
2013-7-9,79.6,75.8,73.1,70.9,69.3,67.2,87,80,69,30.07,29.92,30,12,36,0.00
2013-7-10,78.4,74.6,71.4,70.0,68.5,66.8,90,82,71,30.08,30.00,32,14,34,0.08
2013-7-11,77.5,73.3,70.0,69.6,67.6,65.7,93,83,71,30.03,29.95,24,11,33,0.14
2013-7-12,76.4,72.8,71.5,69.8,67.4,65.7,87,84,78,30.00,29.94,21,10,26,0.01
2013-7-13,79.3,74.9,71.4,69.0,67.1,65.9,85,77,68,29.94,29.86,18,8,23,0.00
2013-7-14,82.5,75.0,71.0,68.9,66.6,64.7,84,76,59,29.93,29.85,17,7,22,0.00
2013-7-15,80.9,74.8,70.6,69.5,67.5,62.8,86,79,56,29.95,29.87,16,7,22,0.00
2013-7-16,81.4,75.2,71.4,69.5,68.1,64.8,90,79,59,29.94,29.86,17,7,23,0.05
2013-7-17,79.2,74.5,72.0,69.5,67.6,65.9,86,79,69,29.94,29.87,20,9,25,0.00
2013-7-18,79.3,74.4,71.9,69.9,68.0,66.4,86,81,71,29.97,29.89,22,9,26,0.00
2013-7-19,80.6,75.6,72.3,71.5,69.3,67.9,89,81,70,30.01,29.93,20,6,23,0.02
2013-7-20,81.6,74.8,71.7,69.3,67.9,66.1,89,80,62,30.00,29.92,19,8,22,0.05
2013-7-21,79.6,74.6,71.5,69.2,67.6,66.1,89,79,68,29.95,29.87,23,8,27,0.00
2013-7-22,79.7,75.2,72.0,73.4,71.0,67.5,94,87,79,29.94,29.86,18,6,24,0.09
2013-7-23,79.6,75.4,73.0,73.1,71.1,69.3,93,87,79,29.95,29.88,12,4,16,0.01
2013-7-24,79.8,75.1,72.7,71.7,69.3,67.1,90,83,73,29.93,29.83,18,7,23,0.00
2013-7-25,80.5,75.1,71.9,69.6,68.0,66.5,87,79,66,29.91,29.84,18,7,22,0.00
2013-7-26,80.7,74.9,71.7,70.7,68.3,66.3,86,81,69,29.97,29.87,20,7,21,0.00
2013-7-27,80.1,74.7,71.5,70.0,68.1,64.9,90,81,66,29.98,29.88,18,9,26,0.04
2013-7-28,80.5,74.6,68.8,71.6,68.8,65.6,93,83,65,29.95,29.84,27,9,31,0.20
2013-7-29,79.3,74.8,71.5,74.0,72.5,70.5,98,93,82,29.88,29.72,29,10,31,0.59
2013-7-30,82.5,76.5,70.9,75.9,72.8,70.0,98,89,77,30.03,29.87,24,9,30,0.39
2013-7-31,78.5,75.1,72.7,72.3,70.4,67.9,95,86,75,30.04,29.96,30,12,33,0.13
2013-8-1,79.6,74.7,71.3,69.6,68.4,66.3,90,81,68,30.03,29.93,26,11,29,0.03
2013-8-2,80.2,75.0,71.2,69.7,68.5,66.8,91,81,65,29.98,29.90,26,9,29,0.04
2013-8-3,80.0,74.9,72.0,69.6,68.2,66.8,87,80,66,29.97,29.89,18,9,25,0.00
2013-8-4,79.7,75.0,70.7,70.2,68.6,66.9,89,81,70,29.96,29.88,17,8,24,0.03
2013-8-5,80.5,75.4,72.5,71.0,69.4,67.8,89,82,72,29.95,29.88,18,8,24,0.01
2013-8-6,81.1,75.5,72.5,69.9,68.3,66.8,86,79,67,29.96,29.89,20,8,24,0.00
2013-8-7,80.7,75.2,72.1,68.8,67.6,66.4,85,78,64,29.99,29.91,20,8,26,0.00
2013-8-8,81.4,75.2,72.2,69.5,67.7,66.2,85,78,65,30.00,29.92,22,7,22,0.00
2013-8-9,80.7,74.8,70.4,72.3,68.7,66.1,94,82,68,29.99,29.88,24,8,27,0.30
2013-8-10,78.6,73.7,70.4,72.5,70.5,67.6,94,90,78,29.96,29.90,20,10,29,0.67
2013-8-11,79.5,75.4,73.4,72.2,70.7,68.7,92,86,75,29.97,29.90,26,12,33,0.06
2013-8-12,79.5,75.1,72.8,70.0,68.6,66.7,89,81,69,30.00,29.92,22,9,30,0.00
2013-8-13,79.1,74.7,72.7,71.0,68.7,66.5,89,82,71,29.97,29.88,24,10,28,0.08
2013-8-14,78.9,75.0,72.6,69.6,68.3,67.4,88,80,70,29.95,29.86,23,10,28,0.00
2013-8-15,78.9,74.8,72.5,70.5,68.4,66.8,86,81,72,29.96,29.89,21,10,30,0.00
2013-8-16,78.8,74.8,71.6,71.3,68.9,67.0,90,82,75,29.97,29.89,23,11,28,0.05
2013-8-17,79.5,75.1,72.4,69.3,67.6,65.9,84,78,67,29.96,29.88,26,11,30,0.00
2013-8-18,81.4,75.4,72.2,70.7,68.2,66.3,84,79,68,29.96,29.88,18,8,23,0.00
2013-8-19,81.8,75.5,72.0,68.9,67.4,63.7,87,77,58,29.96,29.87,14,6,19,0.00
2013-8-20,83.9,76.8,71.5,71.0,69.4,66.4,89,79,61,29.92,29.83,11,4,18,0.00
2013-8-21,83.8,77.3,72.9,73.6,70.6,68.8,90,81,65,29.90,29.82,14,4,16,0.00
2013-8-22,84.5,77.4,73.5,72.1,70.1,68.2,89,79,62,29.92,29.83,13,6,18,0.00
2013-8-23,82.5,75.9,71.9,70.9,69.2,67.1,89,80,66,29.94,29.85,16,6,21,0.04
2013-8-24,81.8,76.1,71.9,71.4,69.1,66.7,88,79,68,29.96,29.87,16,8,22,0.00
2013-8-25,81.2,76.3,73.5,70.7,68.8,67.2,84,78,68,30.00,29.92,19,10,28,0.00
2013-8-26,81.0,76.3,73.7,70.5,68.8,66.7,84,78,64,30.03,29.95,21,9,25,0.00
2013-8-27,80.8,75.5,73.0,68.3,67.1,65.4,83,76,61,30.02,29.92,21,9,27,0.00
2013-8-28,86.9,76.7,72.6,71.0,67.9,64.4,85,75,53,29.96,29.83,14,5,21,0.00
2013-8-29,81.6,75.9,70.0,71.0,69.1,66.4,92,80,66,29.89,29.80,16,6,21,0.20
2013-8-30,82.3,76.6,73.0,71.6,69.2,66.7,87,79,61,29.96,29.86,14,6,18,0.01
2013-8-31,80.1,75.3,72.5,71.7,69.2,67.9,89,82,68,29.98,29.87,18,8,24,0.16
2013-9-1,80.3,75.7,72.0,70.5,68.0,64.9,88,78,69,29.95,29.86,20,9,25,0.01
2013-9-2,79.9,75.4,72.1,70.7,68.1,66.4,86,78,68,29.96,29.87,18,8,30,0.01
2013-9-3,82.5,75.3,73.0,71.4,67.9,64.7,86,78,59,29.96,29.87,18,7,27,0.12
2013-9-4,82.4,75.9,71.3,69.9,68.0,65.7,87,77,64,29.95,29.87,13,6,20,0.01
2013-9-5,79.2,73.4,72.0,68.5,66.7,65.1,84,80,69,29.97,29.90,13,5,15,0.00
2013-9-15,75.2,75.1,74.9,70.0,69.4,68.8,84,83,81,29.91,29.89,20,14,27,0.02
2013-9-16,80.3,76.5,74.4,71.9,70.1,68.6,87,81,72,29.98,29.88,24,10,29,0.01
2013-9-17,79.7,75.3,72.0,71.8,70.0,68.5,91,84,73,29.96,29.88,22,10,28,0.41
2013-9-18,82.3,76.4,73.9,71.3,69.6,67.0,86,80,61,29.93,29.86,18,9,28,0.00
2013-9-19,80.9,76.2,73.0,71.1,69.4,68.1,87,80,67,29.96,29.87,19,9,25,0.02
2013-9-20,80.1,76.0,73.8,70.6,69.0,67.1,86,79,68,29.98,29.90,21,9,26,0.00
2013-9-21,80.9,75.6,73.2,70.4,68.4,65.4,86,79,63,29.96,29.88,20,9,25,0.03
2013-9-22,81.2,75.7,73.0,70.4,68.8,66.6,87,79,65,29.96,29.88,18,8,22,0.06
2013-9-23,81.6,75.7,72.7,71.2,69.3,67.5,90,81,66,29.95,29.86,20,8,24,0.10
2013-9-24,77.9,74.5,71.2,71.5,69.4,67.4,94,84,75,29.95,29.85,21,8,34,0.35
2013-9-25,79.8,75.2,72.1,71.4,69.4,67.9,89,83,71,29.97,29.88,19,8,23,0.37
2013-9-26,83.6,76.0,72.0,71.5,69.0,67.9,90,80,62,29.94,29.86,15,7,22,0.06
2013-9-27,79.4,75.6,73.6,70.5,69.0,67.7,84,80,73,30.01,29.88,19,8,25,0.00
2013-9-28,79.7,75.6,73.1,71.0,69.3,67.3,89,81,72,30.03,29.93,21,11,30,0.01
2013-9-29,79.6,75.0,72.4,70.3,68.6,64.9,87,81,70,29.98,29.87,20,8,25,0.12
2013-9-30,82.6,76.3,73.1,71.1,69.4,67.5,88,80,65,29.96,29.88,17,7,21,0.00
2013-10-1,81.4,76.3,73.5,72.2,70.2,68.3,87,82,72,29.94,29.85,16,8,21,0.00
2013-10-2,80.9,75.9,73.8,71.7,69.6,68.2,86,81,71,29.92,29.83,17,8,22,0.06
2013-10-3,83.5,76.6,73.4,71.8,69.2,66.2,86,78,58,29.91,29.83,16,6,21,0.00
2013-10-4,80.5,75.9,73.2,70.8,69.0,67.9,86,80,68,29.93,29.86,21,8,25,0.00
2013-10-5,78.5,74.8,71.0,70.6,68.5,66.5,89,81,73,29.93,29.85,23,10,27,0.02
2013-10-6,79.2,74.8,73.0,70.0,68.8,66.8,86,82,72,29.93,29.84,22,9,25,0.00
2013-10-7,82.0,76.1,73.4,70.9,69.2,67.8,87,80,64,29.98,29.88,18,8,23,0.00
2013-10-8,79.1,75.2,73.4,70.8,68.8,67.0,86,81,72,29.99,29.91,20,9,25,0.00
2013-10-9,79.3,75.2,73.2,70.3,68.6,67.1,85,80,72,29.97,29.88,20,9,26,0.06
2013-10-10,81.0,75.3,72.0,71.3,69.1,67.3,90,81,70,29.93,29.85,17,7,24,0.05
2013-10-11,86.8,77.5,73.1,72.8,70.5,68.7,89,80,56,29.95,29.83,12,4,14,0.00
2013-10-12,84.3,77.1,72.9,74.5,71.4,69.9,94,83,66,29.94,29.86,10,3,16,0.00
2013-10-13,83.4,75.9,72.7,73.6,70.5,67.2,92,84,71,29.92,29.83,10,3,14,0.19
2013-10-14,83.5,75.9,72.6,72.5,69.6,68.3,90,81,63,29.90,29.82,12,5,18,0.09
2013-10-15,82.6,75.4,72.1,71.2,69.3,67.7,89,82,67,29.91,29.81,14,5,20,0.11
2013-10-16,81.1,75.3,72.2,70.5,68.8,67.2,89,81,64,29.92,29.82,15,5,19,0.03
2013-10-17,85.2,76.6,71.9,72.9,69.4,66.9,89,79,58,29.92,29.84,12,3,16,0.00
2013-10-18,83.9,76.6,72.5,72.5,68.1,62.7,83,76,65,29.89,29.79,14,3,15,0.00
2013-10-19,81.3,74.9,70.5,71.4,67.2,62.7,83,77,66,29.83,29.75,17,3,20,0.00
2013-10-20,81.6,74.8,71.5,70.7,67.7,65.2,87,79,66,29.88,29.77,13,2,16,0.00
2013-10-21,80.7,74.1,70.3,67.8,65.6,63.1,84,75,62,29.91,29.81,11,4,14,0.00
2013-10-22,79.7,74.4,70.8,70.6,67.9,65.7,87,80,71,29.92,29.84,19,5,23,0.00
2013-10-23,81.6,75.6,72.7,69.5,68.0,66.6,85,78,65,29.93,29.84,16,6,20,0.00
2013-10-24,82.0,75.5,72.0,69.9,68.3,66.8,88,79,63,29.92,29.82,14,6,18,0.00
2013-10-25,81.2,75.7,71.8,71.4,69.7,67.1,89,82,70,29.93,29.83,15,5,19,0.00
2013-10-26,84.6,77.5,73.4,74.5,71.5,69.1,90,82,65,29.95,29.86,11,2,14,0.00
2013-10-27,85.0,76.3,73.6,75.2,71.8,68.7,93,86,71,29.96,29.86,13,2,15,0.08
2013-10-28,83.7,76.2,73.3,72.7,70.6,68.7,91,83,68,29.97,29.85,16,6,20,0.03
2013-10-29,81.2,75.3,73.1,70.1,68.9,67.4,87,81,67,29.99,29.89,16,7,20,0.00
2013-10-30,82.3,75.2,72.3,71.4,68.6,66.5,90,80,63,30.02,29.91,15,6,19,0.05
2013-10-31,80.6,75.4,72.1,72.7,69.5,67.9,90,82,69,30.02,29.94,17,7,26,0.09
2013-11-1,78.9,74.8,72.6,70.6,68.5,65.8,89,81,72,30.00,29.89,22,9,33,0.06
2013-11-2,78.6,74.4,72.4,69.7,68.0,65.5,88,81,70,30.01,29.90,24,10,30,0.02
2013-11-3,78.4,74.1,71.5,69.5,67.4,66.1,86,80,70,30.01,29.90,20,10,29,0.20
2013-11-4,79.3,74.2,71.1,69.5,67.6,65.8,86,80,69,29.97,29.86,19,7,22,0.04
2013-11-5,80.8,74.4,71.5,71.6,68.6,66.2,87,83,70,29.93,29.84,16,6,22,0.02
2013-11-6,83.0,74.4,71.3,70.4,68.0,66.1,87,81,64,29.91,29.79,17,4,18,0.04
2013-11-7,82.8,75.9,71.7,71.7,69.2,66.1,89,80,65,29.91,29.81,12,5,19,0.00
2013-11-8,81.3,75.6,72.4,72.8,69.9,68.1,90,83,71,29.91,29.79,16,6,25,0.10
2013-11-9,77.0,72.3,67.4,70.8,68.5,64.6,94,88,79,29.86,29.75,24,8,35,2.74
2013-11-10,74.1,70.5,67.8,67.5,65.4,60.7,94,84,70,29.90,29.76,34,14,39,2.27
2013-11-11,74.3,70.5,67.4,64.7,61.8,58.2,86,74,64,29.90,29.81,29,12,36,0.05
2013-11-12,75.4,69.7,66.3,63.5,60.9,57.2,84,74,61,29.94,29.82,26,10,29,0.06
2013-11-13,77.4,71.7,67.4,66.2,62.5,57.9,90,73,60,29.93,29.84,22,6,24,0.04
2013-11-14,79.4,74.1,69.3,69.7,67.1,61.7,94,79,70,29.95,29.82,12,2,15,0.44
2013-11-15,80.3,74.6,70.1,73.6,70.4,67.8,95,87,77,29.97,29.88,18,5,23,0.46
2013-11-16,78.5,74.7,73.1,71.0,69.2,67.0,87,83,69,29.97,29.87,20,8,27,0.00
2013-11-17,81.3,75.2,72.4,73.3,69.7,68.2,90,83,68,29.94,29.82,14,5,18,0.00
2013-11-18,82.9,75.9,71.8,73.1,68.1,62.3,91,78,60,29.90,29.79,12,3,14,0.00
2013-11-19,82.8,75.4,70.4,71.3,68.5,64.0,89,80,57,29.90,29.79,11,2,13,0.00
2013-11-20,82.0,75.3,71.9,70.1,67.1,61.9,91,77,60,29.93,29.82,10,2,11,0.00
2013-11-21,83.4,75.7,71.8,73.1,68.2,64.0,91,78,65,29.97,29.84,9,2,12,0.00
2013-11-22,81.1,74.0,70.3,71.2,67.1,64.5,89,80,63,29.96,29.86,25,6,29,0.00
2013-11-23,75.0,71.7,70.0,66.0,62.9,58.1,82,74,66,29.95,29.83,24,11,31,0.00
2013-11-24,77.0,71.8,68.1,65.3,61.3,54.6,80,70,60,29.94,29.84,15,7,22,0.00
2013-11-25,78.3,72.5,70.0,65.7,64.3,63.4,82,76,63,30.00,29.88,20,8,25,0.00
2013-11-26,78.8,73.4,70.8,68.8,66.4,64.3,85,79,69,30.02,29.90,22,8,22,0.00
2013-11-27,81.0,74.0,70.7,67.8,65.0,63.0,82,74,61,30.02,29.90,18,6,21,0.00
2013-11-28,81.2,76.4,72.0,70.4,69.0,67.6,88,78,65,29.93,29.83,16,4,17,0.00
2013-11-29,78.4,73.7,70.8,71.1,68.5,66.7,95,84,72,29.89,29.77,19,5,24,0.12
2013-11-30,75.7,74.2,71.0,70.9,69.4,68.1,94,85,80,29.91,29.79,20,9,33,0.05
2013-12-1,74.0,70.2,66.5,71.2,67.6,64.7,97,92,83,29.93,29.81,29,7,40,1.82
2013-12-2,81.9,74.6,69.7,72.4,68.6,66.3,90,82,72,29.94,29.84,9,3,12,0.00
2013-12-3,79.1,73.9,70.3,71.3,68.1,65.6,90,83,64,29.92,29.79,14,4,17,0.00
2013-12-4,79.0,73.4,70.1,69.0,66.7,63.2,91,80,60,29.92,29.81,15,5,15,0.00
2013-12-5,81.1,73.0,69.2,71.4,66.0,63.5,85,79,67,29.93,29.82,13,3,16,0.00
2013-12-6,81.1,73.5,70.5,70.9,66.8,64.2,87,80,66,29.94,29.82,14,4,21,0.08
2013-12-7,82.6,74.4,69.9,69.9,67.0,64.5,89,79,58,29.91,29.81,12,4,16,0.00
2013-12-8,83.6,76.0,70.8,72.1,68.5,62.9,93,78,58,29.97,29.85,10,3,14,0.00
2013-12-9,81.5,75.4,72.5,73.4,70.5,67.1,93,85,74,30.02,29.91,14,5,21,0.09
2013-12-10,77.9,73.7,71.2,70.3,68.8,66.9,92,85,74,29.99,29.86,22,8,27,0.06
2013-12-11,77.1,73.0,70.6,70.9,67.6,64.8,92,84,70,29.98,29.86,19,8,22,0.02
2013-12-12,80.6,73.3,70.7,69.9,67.5,64.7,91,83,62,29.99,29.87,14,5,20,0.04
2013-12-13,81.9,74.2,70.8,70.9,68.0,65.8,89,81,68,29.99,29.88,16,5,19,0.00
2013-12-14,80.9,73.7,70.6,71.1,67.3,65.1,88,81,65,29.94,29.81,15,5,19,0.01
2013-12-15,73.8,70.7,66.2,68.4,65.8,60.6,91,85,64,29.90,29.75,22,3,28,0.34
2013-12-16,80.0,72.9,69.0,70.4,65.1,60.5,85,77,67,29.92,29.82,18,3,22,0.00
2013-12-17,77.4,71.5,68.6,67.6,64.3,62.4,86,78,65,29.96,29.86,15,4,19,0.00
2013-12-18,76.3,71.0,66.9,69.3,65.7,63.2,92,84,73,29.98,29.87,16,6,20,0.42
2013-12-19,78.1,72.3,67.9,69.2,66.9,65.2,93,84,66,29.98,29.89,17,7,23,0.23
2013-12-20,77.2,72.5,70.3,70.8,67.6,65.9,92,85,75,29.98,29.88,15,6,20,0.11
2013-12-21,78.3,72.5,70.1,69.8,67.7,66.0,91,85,73,29.95,29.86,15,6,16,0.03
2013-12-22,78.2,72.4,69.6,68.4,66.4,64.9,89,82,69,29.92,29.83,14,5,22,0.00
2013-12-23,76.9,72.2,69.7,69.2,67.1,65.8,91,84,75,29.98,29.87,16,8,22,0.08
2013-12-24,75.6,71.8,69.8,69.0,66.8,65.4,89,84,78,30.00,29.90,21,9,26,0.07
2013-12-25,76.9,71.8,70.0,68.3,65.9,64.0,86,82,75,29.98,29.88,17,7,23,0.04
2013-12-26,75.3,71.7,69.3,68.6,65.7,63.5,85,82,76,29.95,29.83,21,8,27,0.02
2013-12-27,75.4,71.7,69.4,67.5,65.4,62.2,86,81,73,29.93,29.79,25,10,32,0.01
2013-12-28,76.5,72.3,69.9,69.1,66.7,64.7,88,83,74,29.89,29.77,28,11,37,0.16
2013-12-29,73.9,70.6,68.6,66.0,63.7,61.7,86,79,68,29.91,29.81,35,16,40,0.01
2013-12-30,72.1,69.6,67.3,64.5,63.1,61.6,87,80,72,29.92,29.83,27,12,31,0.00
2013-12-31,77.3,71.2,68.2,66.7,64.7,62.5,89,81,68,29.94,29.83,19,7,27,0.00
2014-1-1,79.8,72.9,69.3,70.5,67.7,65.6,92,84,71,29.90,29.78,10,4,15,0.00
2014-1-2,76.3,72.2,66.3,71.3,69.2,64.5,97,90,82,29.82,29.66,39,16,64,0.12